• In Uzbekistan
  • List of Countries
  • For 7 days
  • Water Temperature
  • Satellite Maps
  • Weather Map
  • Weather Widgets
  • user-avatar
    Login

    Hourly Weather Enilchek

    Today, 27 June, Thursday

    Time Temperature Precipitation Wind Pressure Humidity
    00:00 +5°C° 0 mm 2 mps 513 mmHg 78%
    01:00 +5°C° 0 mm 1 mps 513 mmHg 78%
    02:00 +5°C° 0 mm 1 mps 512 mmHg 77%
    03:00 +5°C° 0 mm 1 mps 512 mmHg 76%
    04:00 +5°C° 0 mm 1 mps 512 mmHg 74%
    05:00 +5°C° 0 mm 1 mps 512 mmHg 72%
    06:00 +6°C° 0 mm 1 mps 513 mmHg 69%
    07:00 +7°C° 0 mm 1 mps 513 mmHg 67%
    08:00 +7°C° 0 mm 0 mps 514 mmHg 64%
    09:00 +8°C° 0 mm 1 mps 514 mmHg 60%
    10:00 +9°C° 0 mm 1 mps 514 mmHg 56%
    11:00 +10°C° 0 mm 1 mps 515 mmHg 52%
    12:00 +11°C° 0.2 mm 1 mps 515 mmHg 50%
    13:00 +10°C° 0.2 mm 2 mps 515 mmHg 48%
    14:00 +12°C° 0.2 mm 2 mps 515 mmHg 46%
    15:00 +12°C° 0.3 mm 2 mps 515 mmHg 48%
    16:00 +12°C° 0.3 mm 2 mps 515 mmHg 49%
    17:00 +12°C° 0.3 mm 2 mps 515 mmHg 50%
    18:00 +10°C° 0.1 mm 2 mps 514 mmHg 55%
    19:00 +8°C° 0.1 mm 2 mps 514 mmHg 60%
    20:00 +7°C° 0.1 mm 2 mps 513 mmHg 65%
    21:00 +7°C° 0 mm 2 mps 513 mmHg 66%
    22:00 +8°C° 0 mm 1 mps 513 mmHg 67%
    23:00 +7°C° 0 mm 1 mps 513 mmHg 68%

    Tomorrow, 28 June, Friday

    Time Temperature Precipitation Wind Pressure Humidity
    00:00 +7°C° 0 mm 1 mps 513 mmHg 68%
    01:00 +7°C° 0 mm 1 mps 512 mmHg 68%
    02:00 +6°C° 0 mm 1 mps 512 mmHg 68%
    03:00 +6°C° 0 mm 1 mps 512 mmHg 68%
    04:00 +6°C° 0 mm 1 mps 512 mmHg 67%
    05:00 +6°C° 0 mm 1 mps 512 mmHg 67%
    06:00 +7°C° 0 mm 1 mps 513 mmHg 62%
    07:00 +8°C° 0 mm 1 mps 514 mmHg 57%
    08:00 +9°C° 0 mm 0 mps 514 mmHg 52%
    09:00 +9°C° 0.1 mm 0 mps 515 mmHg 49%
    10:00 +11°C° 0.1 mm 1 mps 515 mmHg 46%
    11:00 +12°C° 0.1 mm 1 mps 515 mmHg 43%
    12:00 +13°C° 0.3 mm 1 mps 515 mmHg 43%
    13:00 +13°C° 0.3 mm 1 mps 515 mmHg 43%
    14:00 +14°C° 0.3 mm 2 mps 515 mmHg 43%
    15:00 +13°C° 0.7 mm 2 mps 515 mmHg 50%
    16:00 +12°C° 0.7 mm 2 mps 515 mmHg 58%
    17:00 +10°C° 0.7 mm 2 mps 514 mmHg 65%
    18:00 +9°C° 0.9 mm 2 mps 514 mmHg 72%
    19:00 +8°C° 0.9 mm 2 mps 513 mmHg 78%
    20:00 +8°C° 0.9 mm 1 mps 513 mmHg 85%
    21:00 +8°C° 0.2 mm 1 mps 513 mmHg 84%
    22:00 +8°C° 0.2 mm 1 mps 513 mmHg 84%
    23:00 +8°C° 0.2 mm 1 mps 513 mmHg 83%

    Day after tomorrow, 29 June, Saturday

    Time Temperature Precipitation Wind Pressure Humidity
    00:00 +7°C° 0 mm 1 mps 513 mmHg 82%
    01:00 +7°C° 0 mm 1 mps 513 mmHg 81%
    02:00 +6°C° 0 mm 0 mps 513 mmHg 80%
    03:00 +7°C° 0 mm 1 mps 513 mmHg 79%
    04:00 +7°C° 0 mm 1 mps 513 mmHg 78%
    05:00 +8°C° 0 mm 1 mps 514 mmHg 77%
    06:00 +8°C° 0.1 mm 1 mps 514 mmHg 73%
    07:00 +9°C° 0.1 mm 1 mps 515 mmHg 68%
    08:00 +9°C° 0.1 mm 0 mps 515 mmHg 63%
    09:00 +10°C° 0.5 mm 0 mps 515 mmHg 59%
    10:00 +12°C° 0.5 mm 1 mps 516 mmHg 54%
    11:00 +13°C° 0.5 mm 1 mps 516 mmHg 50%
    12:00 +13°C° 1 mm 1 mps 516 mmHg 49%
    13:00 +14°C° 1 mm 1 mps 516 mmHg 48%
    14:00 +14°C° 1 mm 1 mps 516 mmHg 47%
    15:00 +14°C° 1.1 mm 1 mps 516 mmHg 49%
    16:00 +13°C° 1.1 mm 1 mps 516 mmHg 51%
    17:00 +13°C° 1.1 mm 1 mps 515 mmHg 53%
    18:00 +12°C° 0.4 mm 1 mps 516 mmHg 56%
    19:00 +12°C° 0.4 mm 1 mps 516 mmHg 59%
    20:00 +11°C° 0.4 mm 1 mps 516 mmHg 62%
    21:00 +11°C° 0 mm 1 mps 515 mmHg 65%
    22:00 +10°C° 0 mm 1 mps 515 mmHg 68%
    23:00 +10°C° 0 mm 1 mps 515 mmHg 71%

    30 June, Sunday

    Time Temperature Precipitation Wind Pressure Humidity
    00:00 +9°C° 0 mm 1 mps 514 mmHg 72%
    01:00 +9°C° 0 mm 1 mps 514 mmHg 73%
    02:00 +8°C° 0 mm 1 mps 514 mmHg 74%
    03:00 +8°C° 0 mm 1 mps 514 mmHg 73%
    04:00 +8°C° 0 mm 1 mps 514 mmHg 72%
    05:00 +8°C° 0 mm 1 mps 514 mmHg 71%
    06:00 +9°C° 0 mm 0 mps 515 mmHg 64%
    07:00 +10°C° 0 mm 0 mps 515 mmHg 56%
    08:00 +11°C° 0 mm 0 mps 516 mmHg 49%
    09:00 +12°C° 0 mm 0 mps 517 mmHg 44%
    10:00 +14°C° 0 mm 1 mps 517 mmHg 40%
    11:00 +16°C° 0 mm 1 mps 518 mmHg 35%
    12:00 +16°C° 0.1 mm 1 mps 518 mmHg 35%
    13:00 +16°C° 0.1 mm 1 mps 518 mmHg 35%
    14:00 +17°C° 0.1 mm 2 mps 518 mmHg 35%
    15:00 +16°C° 0.4 mm 2 mps 517 mmHg 40%
    16:00 +15°C° 0.4 mm 2 mps 516 mmHg 46%
    17:00 +14°C° 0.4 mm 2 mps 516 mmHg 51%
    18:00 +14°C° 0.2 mm 1 mps 516 mmHg 54%
    19:00 +13°C° 0.2 mm 1 mps 516 mmHg 58%
    20:00 +13°C° 0.2 mm 1 mps 516 mmHg 61%
    21:00 +12°C° 0 mm 1 mps 516 mmHg 64%
    22:00 +12°C° 0 mm 1 mps 515 mmHg 66%
    23:00 +11°C° 0 mm 1 mps 515 mmHg 68%

    1 July, Monday

    Time Temperature Precipitation Wind Pressure Humidity
    00:00 +11°C° 0 mm 1 mps 515 mmHg 70%
    01:00 +10°C° 0 mm 1 mps 514 mmHg 71%
    02:00 +10°C° 0 mm 1 mps 514 mmHg 73%
    03:00 +10°C° 0 mm 1 mps 514 mmHg 73%
    04:00 +10°C° 0 mm 1 mps 514 mmHg 73%
    05:00 +10°C° 0 mm 1 mps 514 mmHg 73%
    06:00 +11°C° 0 mm 1 mps 515 mmHg 66%
    07:00 +11°C° 0 mm 0 mps 515 mmHg 60%
    08:00 +12°C° 0 mm 0 mps 516 mmHg 53%
    09:00 +13°C° 0 mm 0 mps 516 mmHg 49%
    10:00 +15°C° 0 mm 1 mps 517 mmHg 44%
    11:00 +16°C° 0 mm 1 mps 517 mmHg 40%
    12:00 +18°C° 0.2 mm 1 mps 517 mmHg 40%
    13:00 +17°C° 0.2 mm 2 mps 517 mmHg 41%
    14:00 +17°C° 0.2 mm 2 mps 517 mmHg 41%
    15:00 +16°C° 0.6 mm 2 mps 516 mmHg 47%
    16:00 +15°C° 0.6 mm 2 mps 516 mmHg 52%
    17:00 +14°C° 0.6 mm 2 mps 515 mmHg 58%
    18:00 +12°C° 1.4 mm 3 mps 515 mmHg 65%
    19:00 +10°C° 1.4 mm 3 mps 515 mmHg 72%
    20:00 +9°C° 1.4 mm 3 mps 514 mmHg 80%
    21:00 +9°C° 1.3 mm 3 mps 514 mmHg 81%
    22:00 +8°C° 1.3 mm 2 mps 514 mmHg 83%
    23:00 +9°C° 1.3 mm 1 mps 514 mmHg 85%

    2 July, Tuesday

    Time Temperature Precipitation Wind Pressure Humidity
    00:00 +9°C° 0 mm 1 mps 514 mmHg 84%
    01:00 +9°C° 0 mm 1 mps 514 mmHg 83%
    02:00 +9°C° 0 mm 1 mps 514 mmHg 82%
    03:00 +9°C° 0 mm 1 mps 514 mmHg 82%
    04:00 +9°C° 0 mm 1 mps 515 mmHg 82%
    05:00 +8°C° 0 mm 2 mps 515 mmHg 82%
    06:00 +9°C° 0 mm 2 mps 515 mmHg 77%
    07:00 +10°C° 0 mm 2 mps 516 mmHg 72%
    08:00 +12°C° 0 mm 2 mps 517 mmHg 67%
    09:00 +13°C° 0.4 mm 2 mps 517 mmHg 64%
    10:00 +14°C° 0.4 mm 2 mps 517 mmHg 60%
    11:00 +15°C° 0.4 mm 2 mps 518 mmHg 57%
    12:00 +15°C° 0.9 mm 2 mps 518 mmHg 55%
    13:00 +14°C° 0.9 mm 3 mps 518 mmHg 53%
    14:00 +16°C° 0.9 mm 3 mps 518 mmHg 52%
    15:00 +16°C° 0.3 mm 3 mps 518 mmHg 50%
    16:00 +16°C° 0.3 mm 3 mps 518 mmHg 48%
    17:00 +16°C° 0.3 mm 3 mps 518 mmHg 47%
    18:00 +15°C° 0 mm 2 mps 518 mmHg 51%
    19:00 +14°C° 0 mm 2 mps 518 mmHg 55%
    20:00 +13°C° 0 mm 2 mps 517 mmHg 59%
    21:00 +12°C° 0 mm 2 mps 517 mmHg 64%
    22:00 +12°C° 0 mm 2 mps 517 mmHg 68%
    23:00 +10°C° 0 mm 2 mps 516 mmHg 72%
    Show more